Fort Indiantown Gap, PA

1:10 AM EDT on July 28, 2017 (GMT -0400)
Muir Army Air Field

Weather History for KMUI - January, 2013

Change the Weather History Date:

Wednesday, January 23, 2013

  Actual Average Record
Temperature  
Mean Temperature 14 °F -  
Max Temperature 19 °F 32 °F 46 °F (1997)
Min Temperature 9 °F 21 °F 0 °F (2011)
Degree Days  
Heating Degree Days 51    
Moisture  
Dew Point -3 °F    
Average Humidity 49    
Maximum Humidity 74    
Minimum Humidity 36    
Precipitation  
Precipitation 0.00 in - - ()
Sea Level Pressure  
Sea Level Pressure 30.24 in    
Wind  
Wind Speed 9 mph (West)    
Max Wind Speed 18 mph    
Max Gust Speed 26 mph    
Visibility 10 miles    
Events Snow    
Averages and records for this station are not official NWS values.
T = Trace of Precipitation, MM = Missing Value Source: NWS Daily Summary

Daily Weather History Graph

Daily Weather History Graph

Search for Another Location

Airport or City:

Trip Planner

Search our weather history database for the weather conditions in past years. The results will help you decide how hot, cold, wet, or windy it might be!

Date:

Astronomy

Jan. 23, 2013 Rise Set
Actual Time 7:22 AM EST 5:13 PM EST
Civil Twilight 6:53 AM EST 5:43 PM EST
Nautical Twilight 6:20 AM EST 6:16 PM EST
Astronomical Twilight 5:48 AM EST 6:48 PM EST
Moon 2:22 PM EST (1/23) 4:32 AM EST (1/23)
Length of Visible Light 10h 49m
Length of Day
9h 51m
Waxing Gibbous, 89% of the Moon is Illuminated
Jan 23
Waxing Gibbous
Jan 26
Full
Feb 3
Last Quarter
Feb 10
New
Feb 17
First Quarter

Hourly Weather History & Observations

Time (EST) Temp. Windchill Dew Point Humidity Pressure Visibility Wind Dir Wind Speed Gust Speed Precip Events Conditions
12:55 AM 10.8 °F -2.8 °F -4.9 °F 49% 30.25 in 10.0 mi WSW 10.4 mph - N/A   Clear
1:55 AM 10.6 °F -2.2 °F -4.7 °F 50% 30.26 in 10.0 mi WSW 9.2 mph - N/A   Clear
2:55 AM 10.8 °F 0.0 °F -4.7 °F 50% 30.27 in 10.0 mi West 6.9 mph - N/A   Clear
3:55 AM 10.2 °F 0.6 °F -4.2 °F 52% 30.27 in 10.0 mi WSW 5.8 mph - N/A   Clear
4:55 AM 9.9 °F 1.6 °F -4.4 °F 53% 30.27 in 10.0 mi Variable 4.6 mph - N/A   Clear
5:55 AM 10.2 °F -1.7 °F -4.0 °F 53% 30.27 in 10.0 mi WSW 8.1 mph - N/A   Clear
6:55 AM 9.3 °F -3.8 °F -2.9 °F 58% 30.28 in 10.0 mi SW 9.2 mph - N/A   Clear
7:55 AM 10.0 °F -2.9 °F -2.9 °F 56% 30.29 in 10.0 mi WSW 9.2 mph - N/A   Clear
8:55 AM 12.6 °F -0.6 °F -3.1 °F 50% 30.30 in 10.0 mi West 10.4 mph 20.7 mph N/A   Partly Cloudy
9:55 AM 13.3 °F 1.1 °F -3.1 °F 48% 30.31 in 10.0 mi WNW 9.2 mph 20.7 mph N/A   Clear
10:55 AM 16.2 °F 3.2 °F -2.0 °F 45% 30.30 in 10.0 mi WNW 11.5 mph - N/A   Scattered Clouds
11:55 AM 16.9 °F 3.4 °F -2.0 °F 43% 30.27 in 10.0 mi West 12.7 mph 17.3 mph N/A   Mostly Cloudy
12:23 PM 17.6 °F 1.7 °F -4.0 °F 38% 30.25 in 10.0 mi WSW 18.4 mph 26.5 mph N/A Snow Light Snow
12:24 PM 15.8 °F 2.7 °F -4.0 °F 41% 30.21 in 10.0 mi West 11.5 mph 26.5 mph N/A   Partly Cloudy
12:55 PM 17.1 °F 3.6 °F -4.7 °F 38% 30.23 in 10.0 mi West 12.7 mph 19.6 mph N/A   Partly Cloudy
1:55 PM 17.8 °F 2.9 °F -2.6 °F 41% 30.22 in 10.0 mi WSW 16.1 mph - N/A   Partly Cloudy
1:58 PM 17.6 °F 4.3 °F -2.2 °F 42% 30.22 in 10.0 mi SW 12.7 mph 19.6 mph N/A Snow Light Snow
2:08 PM 17.6 °F 3.2 °F -4.0 °F 38% 30.22 in 10.0 mi WSW 15.0 mph 19.6 mph N/A   Scattered Clouds
2:55 PM 17.4 °F 7.1 °F -2.9 °F 41% 30.22 in 10.0 mi West 8.1 mph - 0.00 in   Partly Cloudy
3:29 PM 19.4 °F 9.5 °F -4.0 °F 36% 30.21 in 10.0 mi WNW 8.1 mph - N/A   Light Freezing Rain
3:49 PM 19.4 °F 7.2 °F -4.0 °F 36% 30.21 in 10.0 mi WSW 11.5 mph - N/A   Scattered Clouds
3:55 PM 18.7 °F 10.6 °F -4.4 °F 36% 30.21 in 10.0 mi West 5.8 mph - N/A   Scattered Clouds
4:55 PM 17.2 °F 6.8 °F -2.7 °F 41% 30.21 in 10.0 mi WNW 8.1 mph - N/A   Scattered Clouds
5:55 PM 16.2 °F 6.5 °F -3.6 °F 42% 30.22 in 10.0 mi WSW 6.9 mph - N/A   Scattered Clouds
6:55 PM 14.7 °F 5.9 °F -3.3 °F 45% 30.22 in 10.0 mi West 5.8 mph - N/A   Partly Cloudy
7:55 PM 12.4 °F 6.3 °F -1.3 °F 54% 30.20 in 10.0 mi WNW 3.5 mph - N/A   Clear
8:55 PM 9.7 °F - 1.2 °F 69% 30.21 in 10.0 mi Calm Calm - N/A   Clear
9:55 PM 9.0 °F - 2.1 °F 74% 30.21 in 10.0 mi Calm Calm - N/A   Overcast
10:55 PM 10.9 °F - 3.7 °F 73% 30.20 in 10.0 mi Calm Calm - N/A   Overcast
11:55 PM 11.8 °F - 4.5 °F 72% 30.17 in 10.0 mi Calm Calm - N/A   Partly Cloudy